Time,TemperatureF,DewpointF,PressureIn,WindDirection,WindDirectionDegrees,WindSpeedMPH,WindSpeedGustMPH,Humidity,HourlyPrecipIn,Conditions,Clouds,dailyrainin,SolarRadiationWatts/m^2,SoftwareType,DateUTC
2013-02-10 00:01:00,26.0,18.0,-100.00,NW,324,12.0,20.0,71,0.00,,,0.00,0.000000,,2013-02-10 08:01:00,
2013-02-10 00:11:00,26.0,18.0,-100.00,NW,324,12.0,20.0,71,0.00,,,0.00,0.000000,,2013-02-10 08:11:00,
2013-02-10 00:21:00,26.0,18.0,-100.00,NW,324,12.0,20.0,71,0.00,,,0.00,0.000000,,2013-02-10 08:21:00,
2013-02-10 00:52:00,24.0,18.0,-100.00,NW,326,13.0,19.0,79,0.00,,,0.00,0.000000,,2013-02-10 08:52:00,
2013-02-10 01:02:00,24.0,18.0,-100.00,NW,326,13.0,19.0,79,0.00,,,0.00,0.000000,,2013-02-10 09:02:00,
2013-02-10 01:11:00,24.0,18.0,-100.00,NW,326,13.0,19.0,79,0.00,,,0.00,0.000000,,2013-02-10 09:11:00,
2013-02-10 01:21:00,24.0,18.0,-100.00,NW,326,13.0,19.0,79,0.00,,,0.00,0.000000,,2013-02-10 09:21:00,
2013-02-10 01:52:00,27.0,18.0,-100.00,NNE,21,1.0,16.0,69,0.00,,,0.00,0.000000,,2013-02-10 09:52:00,
2013-02-10 02:01:00,27.0,18.0,-100.00,NNE,21,1.0,16.0,69,0.00,,,0.00,0.000000,,2013-02-10 10:01:00,
2013-02-10 02:11:00,27.0,18.0,-100.00,NNE,21,1.0,16.0,69,0.00,,,0.00,0.000000,,2013-02-10 10:11:00,
2013-02-10 02:21:00,27.0,18.0,-100.00,NNE,21,1.0,16.0,69,0.00,,,0.00,0.000000,,2013-02-10 10:21:00,
2013-02-10 02:52:00,28.0,18.0,-100.00,NW,307,2.0,5.0,66,0.00,,,0.00,0.000000,,2013-02-10 10:52:00,
2013-02-10 03:01:00,28.0,18.0,-100.00,NW,307,2.0,5.0,66,0.00,,,0.00,0.000000,,2013-02-10 11:01:00,
2013-02-10 03:11:00,28.0,18.0,-100.00,NW,307,2.0,5.0,66,0.00,,,0.00,0.000000,,2013-02-10 11:11:00,
2013-02-10 03:21:00,28.0,18.0,-100.00,NW,307,2.0,5.0,66,0.00,,,0.00,0.000000,,2013-02-10 11:21:00,
2013-02-10 03:52:00,28.0,17.0,-100.00,West,273,3.0,5.0,64,0.00,,,0.00,0.000000,,2013-02-10 11:52:00,
2013-02-10 04:01:00,28.0,17.0,-100.00,West,273,3.0,5.0,64,0.00,,,0.00,0.000000,,2013-02-10 12:01:00,
2013-02-10 04:12:00,28.0,17.0,-100.00,West,273,3.0,5.0,64,0.00,,,0.00,0.000000,,2013-02-10 12:12:00,
2013-02-10 04:21:00,28.0,17.0,-100.00,West,273,3.0,5.0,64,0.00,,,0.00,0.000000,,2013-02-10 12:21:00,
2013-02-10 06:52:00,25.0,15.0,-100.00,NW,325,7.0,14.0,65,-99.99,,,0.00,0.000000,,2013-02-10 14:52:00,
2013-02-10 07:01:00,25.0,15.0,-100.00,NW,325,7.0,14.0,65,-99.99,,,0.00,0.000000,,2013-02-10 15:01:00,
2013-02-10 07:11:00,25.0,15.0,-100.00,NW,325,7.0,14.0,65,-99.99,,,0.00,0.000000,,2013-02-10 15:11:00,
2013-02-10 07:21:00,25.0,15.0,-100.00,NW,325,7.0,14.0,65,-99.99,,,0.00,0.000000,,2013-02-10 15:21:00,
2013-02-10 07:52:00,25.0,16.0,-100.00,NW,324,12.0,14.0,68,0.00,,,0.00,42.000000,,2013-02-10 15:52:00,
2013-02-10 08:01:00,25.0,16.0,-100.00,NW,324,12.0,14.0,68,0.00,,,0.00,42.000000,,2013-02-10 16:01:00,
2013-02-10 08:11:00,25.0,16.0,-100.00,NW,324,12.0,14.0,68,0.00,,,0.00,42.000000,,2013-02-10 16:11:00,
2013-02-10 08:21:00,25.0,16.0,-100.00,NW,324,12.0,14.0,68,0.00,,,0.00,42.000000,,2013-02-10 16:21:00,
2013-02-10 08:52:00,28.0,16.0,-100.00,NNW,328,9.0,15.0,60,0.00,,,0.00,284.000000,,2013-02-10 16:52:00,
2013-02-10 09:01:00,28.0,16.0,-100.00,NNW,328,9.0,15.0,60,0.00,,,0.00,284.000000,,2013-02-10 17:01:00,
2013-02-10 09:11:00,28.0,16.0,-100.00,NNW,328,9.0,15.0,60,0.00,,,0.00,284.000000,,2013-02-10 17:11:00,
2013-02-10 09:21:00,28.0,16.0,-100.00,NNW,328,9.0,15.0,60,0.00,,,0.00,284.000000,,2013-02-10 17:21:00,
2013-02-10 09:52:00,32.0,15.0,-100.00,NW,313,5.0,12.0,50,0.00,,,0.00,521.000000,,2013-02-10 17:52:00,
2013-02-10 10:02:00,32.0,15.0,-100.00,NW,313,5.0,12.0,50,0.00,,,0.00,521.000000,,2013-02-10 18:02:00,
2013-02-10 10:11:00,32.0,15.0,-100.00,NW,313,5.0,12.0,50,0.00,,,0.00,521.000000,,2013-02-10 18:11:00,
2013-02-10 10:21:00,32.0,15.0,-100.00,NW,313,5.0,12.0,50,0.00,,,0.00,521.000000,,2013-02-10 18:21:00,
2013-02-10 10:52:00,38.0,19.0,-100.00,South,172,3.0,12.0,45,0.00,,,0.00,719.000000,,2013-02-10 18:52:00,
2013-02-10 11:01:00,38.0,19.0,-100.00,South,172,3.0,12.0,45,0.00,,,0.00,719.000000,,2013-02-10 19:01:00,
2013-02-10 11:52:00,39.0,14.0,-100.00,SSE,161,5.0,11.0,36,0.00,,,0.00,870.000000,,2013-02-10 19:52:00,
2013-02-10 12:01:00,39.0,14.0,-100.00,SSE,161,5.0,11.0,36,0.00,,,0.00,870.000000,,2013-02-10 20:01:00,
2013-02-10 12:11:00,39.0,14.0,-100.00,SSE,161,5.0,11.0,36,0.00,,,0.00,870.000000,,2013-02-10 20:11:00,
2013-02-10 12:21:00,39.0,14.0,-100.00,SSE,161,5.0,11.0,36,0.00,,,0.00,870.000000,,2013-02-10 20:21:00,
2013-02-10 12:52:00,35.0,9.0,-100.00,ESE,116,7.0,13.0,34,0.00,,,0.00,828.000000,,2013-02-10 20:52:00,
2013-02-10 13:02:00,35.0,9.0,-100.00,ESE,116,7.0,13.0,34,0.00,,,0.00,828.000000,,2013-02-10 21:02:00,
2013-02-10 13:11:00,35.0,9.0,-100.00,ESE,116,7.0,13.0,34,0.00,,,0.00,828.000000,,2013-02-10 21:11:00,
2013-02-10 13:21:00,35.0,9.0,-100.00,ESE,116,7.0,13.0,34,0.00,,,0.00,828.000000,,2013-02-10 21:21:00,
2013-02-10 13:52:00,42.0,13.0,-100.00,South,179,4.0,14.0,30,0.00,,,0.00,797.000000,,2013-02-10 21:52:00,
2013-02-10 14:01:00,42.0,13.0,-100.00,South,179,4.0,14.0,30,0.00,,,0.00,797.000000,,2013-02-10 22:01:00,
2013-02-10 14:11:00,42.0,13.0,-100.00,South,179,4.0,14.0,30,0.00,,,0.00,797.000000,,2013-02-10 22:11:00,
2013-02-10 14:21:00,42.0,13.0,-100.00,South,179,4.0,14.0,30,0.00,,,0.00,797.000000,,2013-02-10 22:21:00,
2013-02-10 14:52:00,39.0,10.0,-100.00,South,169,8.0,14.0,30,0.00,,,0.00,848.000000,,2013-02-10 22:52:00,
2013-02-10 15:02:00,39.0,10.0,-100.00,South,169,8.0,14.0,30,0.00,,,0.00,848.000000,,2013-02-10 23:02:00,
2013-02-10 15:11:00,39.0,10.0,-100.00,South,169,8.0,14.0,30,0.00,,,0.00,848.000000,,2013-02-10 23:11:00,
2013-02-10 15:21:00,39.0,10.0,-100.00,South,169,8.0,14.0,30,0.00,,,0.00,848.000000,,2013-02-10 23:21:00,
2013-02-10 15:52:00,37.0,11.0,-100.00,SE,144,6.0,16.0,33,0.00,,,0.00,536.000000,,2013-02-10 23:52:00,
2013-02-10 16:01:00,37.0,11.0,-100.00,SE,144,6.0,16.0,33,0.00,,,0.00,536.000000,,2013-02-11 00:01:00,
2013-02-10 16:11:00,37.0,11.0,-100.00,SE,144,6.0,16.0,33,0.00,,,0.00,536.000000,,2013-02-11 00:11:00,
2013-02-10 16:21:00,37.0,11.0,-100.00,SE,144,6.0,16.0,33,0.00,,,0.00,536.000000,,2013-02-11 00:21:00,
2013-02-10 16:52:00,38.0,18.0,-100.00,SW,233,5.0,17.0,43,0.00,,,0.00,333.000000,,2013-02-11 00:52:00,
2013-02-10 17:01:00,38.0,18.0,-100.00,SW,233,5.0,17.0,43,0.00,,,0.00,333.000000,,2013-02-11 01:01:00,
2013-02-10 17:11:00,38.0,18.0,-100.00,SW,233,5.0,17.0,43,0.00,,,0.00,333.000000,,2013-02-11 01:11:00,
2013-02-10 17:21:00,38.0,18.0,-100.00,SW,233,5.0,17.0,43,0.00,,,0.00,333.000000,,2013-02-11 01:21:00,
2013-02-10 17:52:00,31.0,20.0,-100.00,West,261,9.0,14.0,62,0.00,,,0.00,89.000000,,2013-02-11 01:52:00,
2013-02-10 18:01:00,31.0,20.0,-100.00,West,261,9.0,14.0,62,0.00,,,0.00,89.000000,,2013-02-11 02:01:00,
2013-02-10 18:11:00,31.0,20.0,-100.00,West,261,9.0,14.0,62,0.00,,,0.00,89.000000,,2013-02-11 02:11:00,
2013-02-10 18:21:00,31.0,20.0,-100.00,West,261,9.0,14.0,62,0.00,,,0.00,89.000000,,2013-02-11 02:21:00,
2013-02-10 18:52:00,29.0,21.0,-100.00,NW,313,8.0,14.0,71,0.00,,,0.00,1.000000,,2013-02-11 02:52:00,
2013-02-10 19:01:00,29.0,21.0,-100.00,NW,313,8.0,14.0,71,0.00,,,0.00,1.000000,,2013-02-11 03:01:00,
2013-02-10 19:11:00,29.0,21.0,-100.00,NW,313,8.0,14.0,71,0.00,,,0.00,1.000000,,2013-02-11 03:11:00,
2013-02-10 19:21:00,29.0,21.0,-100.00,NW,313,8.0,14.0,71,0.00,,,0.00,1.000000,,2013-02-11 03:21:00,
2013-02-10 19:52:00,31.0,16.0,-100.00,East,86,8.0,21.0,53,0.00,,,0.00,0.000000,,2013-02-11 03:52:00,
2013-02-10 20:01:00,31.0,16.0,-100.00,East,86,8.0,21.0,53,0.00,,,0.00,0.000000,,2013-02-11 04:01:00,
2013-02-10 20:11:00,31.0,16.0,-100.00,East,86,8.0,21.0,53,0.00,,,0.00,0.000000,,2013-02-11 04:11:00,
2013-02-10 20:21:00,31.0,16.0,-100.00,East,86,8.0,21.0,53,0.00,,,0.00,0.000000,,2013-02-11 04:21:00,
2013-02-10 20:52:00,30.0,13.0,-100.00,ENE,70,6.0,23.0,48,0.00,,,0.00,0.000000,,2013-02-11 04:52:00,
2013-02-10 21:01:00,30.0,13.0,-100.00,ENE,70,6.0,23.0,48,0.00,,,0.00,0.000000,,2013-02-11 05:01:00,
2013-02-10 21:11:00,30.0,13.0,-100.00,ENE,70,6.0,23.0,48,0.00,,,0.00,0.000000,,2013-02-11 05:11:00,
2013-02-10 21:22:00,30.0,13.0,-100.00,ENE,70,6.0,23.0,48,0.00,,,0.00,0.000000,,2013-02-11 05:22:00,
2013-02-10 21:52:00,29.0,13.0,-100.00,NW,312,8.0,19.0,51,0.00,,,0.00,0.000000,,2013-02-11 05:52:00,
2013-02-10 22:01:00,29.0,13.0,-100.00,NW,312,8.0,19.0,51,0.00,,,0.00,0.000000,,2013-02-11 06:01:00,
2013-02-10 22:11:00,29.0,13.0,-100.00,NW,312,8.0,19.0,51,0.00,,,0.00,0.000000,,2013-02-11 06:11:00,
2013-02-10 22:21:00,29.0,13.0,-100.00,NW,312,8.0,19.0,51,0.00,,,0.00,0.000000,,2013-02-11 06:21:00,
2013-02-10 22:52:00,28.0,11.0,-100.00,SSE,158,5.0,28.0,48,0.00,,,0.00,0.000000,,2013-02-11 06:52:00,
2013-02-10 23:01:00,28.0,11.0,-100.00,SSE,158,5.0,28.0,48,0.00,,,0.00,0.000000,,2013-02-11 07:01:00,
2013-02-10 23:11:00,28.0,11.0,-100.00,SSE,158,5.0,28.0,48,0.00,,,0.00,0.000000,,2013-02-11 07:11:00,
2013-02-10 23:21:00,28.0,11.0,-100.00,SSE,158,5.0,28.0,48,0.00,,,0.00,0.000000,,2013-02-11 07:21:00,
2013-02-10 23:52:00,27.0,10.0,-100.00,West,267,5.0,14.0,48,0.00,,,0.00,0.000000,,2013-02-11 07:52:00,